Flag for Switzerland Weather past 2 weeks in Lugano, Switzerland

Now
59 °F

Partly sunny.


Feels Like: 58 °F
Forecast: 36 / 68 °F
Wind: 7 mph from South

Location: Lugano Airport

Current Time: Apr 19, 2015 at 6:45:23 PM

Latest Report: Apr 19, 2015 at 6:20 PM


Visibility: N/A

Pressure: 30.09 "Hg

Humidity: 42%

Dew point: 36 °F

Location of LuganoLocation

Historic Weather in Lugano — Graph

°F

Lugano temperature yesterday

Maximum temperature yesterday: 72 °F (at 2:50 PM)
Minimum temperature yesterday: 46 °F (at 2:50 AM)
Average temperature yesterday: 57 °F

Past Weeks' High & Low Weather Summary

 TemperatureHumidityPressure
High104 °F (Apr 14, 3:20 PM)100% (Apr 18, 12:50 AM)30.42 "Hg (Apr 18, 12:50 AM)
Low32 °F (Apr 6, 7:50 AM)4% (Apr 14, 3:20 PM)29.74 "Hg (Apr 4, 5:20 PM)
Average55 °F55%30.18 "Hg
* Reported Apr 4 5:20 PM — Apr 19 5:20 PM, Lugano, Weather by CustomWeather, © 2015

Note: Actual official high and low records may vary slightly from our data, if they occured in-between our weather recording intervals... More about our weather records

Advertising

Lugano weather history for previous 24 hours

 ConditionsComfort  
Time TempWeatherWind HumidityBarometerVisibility
5:20 PM
Sun, Apr 19
59 °FScattered clouds.7 mph36%30.09 "HgN/A
4:50 PM61 °FScattered clouds.6 mph34%30.09 "HgN/A
4:20 PM59 °FScattered clouds.7 mph39%30.09 "HgN/A
3:50 PM59 °FScattered clouds.7 mph36%30.09 "HgN/A
3:20 PM59 °FScattered clouds.7 mph36%30.09 "HgN/A
2:50 PM59 °FPassing clouds.6 mph34%30.12 "HgN/A
2:20 PM57 °FPassing clouds.6 mph39%30.12 "HgN/A
1:50 PM57 °FPartly sunny.6 mph33%30.12 "HgN/A
1:20 PM55 °FBroken clouds.7 mph41%30.15 "HgN/A
12:50 PM54 °FMore clouds than sun.7 mph44%30.15 "HgN/A
12:20 PM54 °FMore clouds than sun.6 mph41%30.15 "HgN/A
11:50 AM54 °FMore clouds than sun.5 mph41%30.18 "HgN/A
11:20 AM54 °FOvercast.6 mph44%30.18 "HgN/A
10:50 AM52 °FOvercast.5 mph50%30.18 "HgN/A
10:20 AM52 °FOvercast.3 mph54%30.15 "HgN/A
9:50 AM50 °FOvercast.2 mph62%30.18 "HgN/A
9:20 AM48 °FOvercast.2 mph71%30.18 "HgN/A
8:50 AM48 °FOvercast.1 mph71%30.18 "HgN/A
8:20 AM48 °FOvercast.No wind71%30.18 "HgN/A
7:50 AM48 °FOvercast.No wind71%30.18 "HgN/A
7:20 AM48 °FOvercast.1 mph71%30.18 "HgN/A
6:50 AM48 °FOvercast.1 mph71%30.18 "HgN/A
6:20 AM46 °FOvercast.1 mph76%30.18 "HgN/A
5:20 AM48 °FOvercast.5 mph71%30.18 "HgN/A
4:50 AM48 °FOvercast.5 mph66%30.18 "HgN/A
4:20 AM48 °FMostly cloudy.6 mph66%30.18 "HgN/A
3:50 AM48 °FPartly cloudy.8 mph66%30.18 "HgN/A
3:20 AM48 °FPartly cloudy.5 mph66%30.18 "HgN/A
2:50 AM48 °FPartly cloudy.6 mph71%30.18 "HgN/A
2:20 AM48 °FPartly cloudy.9 mph66%30.18 "HgN/A
1:20 AM50 °FPassing clouds.8 mph67%30.18 "HgN/A
12:50 AM50 °FLight rain. Overcast.8 mph71%30.15 "HgN/A
12:20 AM50 °FOvercast.8 mph67%30.15 "HgN/A
11:50 PM
Sat, Apr 18
50 °FOvercast.10 mph71%30.12 "HgN/A
11:20 PM50 °FOvercast.10 mph71%30.12 "HgN/A
10:50 PM50 °FPartly cloudy.12 mph71%30.09 "HgN/A
10:20 PM52 °FPartly cloudy.13 mph72%30.07 "HgN/A
9:50 PM52 °FPassing clouds.12 mph77%30.04 "HgN/A
9:20 PM54 °FPassing clouds.15 mph77%30.01 "HgN/A
8:50 PM55 °FPassing clouds.18 mph77%29.98 "HgN/A
8:20 PM63 °FScattered showers. Passing clouds.10 mph25%29.92 "HgN/A
7:50 PM64 °FPassing clouds.3 mph24%29.89 "HgN/A
7:20 PM66 °FPassing clouds.2 mph60%29.89 "HgN/A
6:50 PM66 °FPassing clouds.5 mph64%29.89 "HgN/A
6:20 PM64 °FPassing clouds.8 mph68%29.86 "HgN/A
Weather by CustomWeather, © 2015

See weather overviewHow to use our weather pages